Location: Partizánske
(48.6285°N, 18.3769°E)
Time: 18:04:35
(UTC+02:00)

Vanguard 1 - All Passes

Search period start: 29 June 2022 00:00
Search period end: 09 July 2022 00:00
Orbit: 649 x 3833 km, 34.2° (Epoch: 28 June)

Date Brightness Start Highest point End Pass type
(mag) Time Alt. Az. Time Alt. Az. Time Alt. Az.
29 Jun - 17:38:02 10° SSW 17:40:18 13° S 17:42:23 10° SE daylight
29 Jun - 19:57:15 10° SW 19:59:22 13° S 20:01:32 10° SSE daylight
30 Jun - 17:58:02 10° SSW 18:00:43 14° S 18:03:11 10° SE daylight
30 Jun - 20:18:22 10° SSW 20:19:46 11° S 20:21:11 10° S daylight
01 Jul - 15:59:30 10° S 16:01:51 12° SSE 16:03:56 10° SE daylight
01 Jul - 18:18:20 10° SW 18:21:08 15° S 18:23:43 10° SSE daylight
02 Jul - 16:18:51 10° SSW 16:22:21 15° S 16:25:14 10° SE daylight
02 Jul - 18:38:53 10° SW 18:41:32 14° S 18:43:59 10° SSE daylight
03 Jul - 14:21:20 10° S 14:23:03 11° SSE 14:24:38 10° SSE daylight
03 Jul - 16:38:48 10° SW 16:42:49 17° S 16:46:04 10° SE daylight
03 Jul - 18:59:43 10° SW 19:01:54 13° SSW 19:03:58 10° SSE daylight
04 Jul - 14:39:21 10° SSW 14:43:38 14° SSE 14:47:03 10° SE daylight
04 Jul - 16:59:04 10° SW 17:03:16 18° S 17:06:38 10° SE daylight
04 Jul - 19:21:08 10° SSW 19:22:15 11° SSW 19:23:19 10° S daylight
05 Jul - 14:58:43 10° SSW 15:04:12 18° S 15:08:16 10° SE daylight
05 Jul - 17:19:32 10° SW 17:23:42 18° S 17:27:02 10° SE daylight
06 Jul - 13:00:21 10° S 13:04:24 12° SSE 13:07:47 10° SE daylight
06 Jul - 15:18:36 10° SW 15:24:44 21° S 15:29:07 10° SE daylight
06 Jul - 17:40:12 10° SW 17:44:05 17° SSW 17:47:16 10° SSE daylight
07 Jul - 13:18:32 10° SSW 13:25:03 17° SSE 13:29:54 10° SE daylight
07 Jul - 15:38:49 10° SW 15:45:15 23° S 15:49:45 10° SE daylight
07 Jul - 18:01:05 10° SW 18:04:25 15° SSW 18:07:14 10° SSE daylight
08 Jul - 13:37:44 10° SSW 13:45:40 21° SSE 13:51:10 10° ESE daylight
08 Jul - 15:59:15 10° SW 16:05:43 24° S 16:10:13 10° SE daylight
08 Jul - 18:22:19 10° SW 18:24:41 13° SSW 18:26:49 10° S daylight
